Weather History for Fort Campbell, KY

Change the Weather History Date:

Wednesday, February 12, 2014

  Actual Average Record
Temperature  
Mean Temperature 26 °F -  
Max Temperature 38 °F 49 °F 64 °F (2005)
Min Temperature 15 °F 30 °F 15 °F (2014)
Degree Days  
Heating Degree Days 38    
Moisture  
Dew Point 21 °F    
Average Humidity 81    
Maximum Humidity 94    
Minimum Humidity 62    
Precipitation  
Precipitation 0.00 in - - ()
Sea Level Pressure  
Sea Level Pressure 30.12 in    
Wind  
Wind Speed 6 mph (NNE)    
Max Wind Speed 9 mph    
Max Gust Speed -    
Visibility 10 miles    
Events      
Averages and records for this station are not official NWS values.
T = Trace of Precipitation, MM = Missing Value Source: NWS Daily Summary

Daily Weather History Graph

Daily Weather History Graph

Search for Another Location

Airport:

Trip Planner

Search our weather history database for the weather conditions in past years. The results will help you decide how hot, cold, wet, or windy it might be!

Date:

Astronomy

Feb. 12, 2014 Rise Set
Actual Time 6:41 AM CST 5:27 PM CST
Civil Twilight 6:14 AM CST 5:54 PM CST
Nautical Twilight 5:44 AM CST 6:24 PM CST
Astronomical Twilight 5:14 AM CST 6:54 PM CST
Moon 3:42 PM CST (2/12) 4:56 AM CST (2/12)
Length of Visible Light 11h 39m
Length of Day
10h 46m
Waxing Gibbous, 95% of the Moon is Illuminated
Feb 12
Waxing Gibbous
Feb 14
Full
Feb 22
Last Quarter
Mar 1
New
Mar 8
First Quarter

Hourly Weather History & Observations

Time (CST) Temp. Windchill Dew Point Humidity Pressure Visibility Wind Dir Wind Speed Gust Speed Precip Events Conditions
12:58 AM 17.8 °F 8.5 °F 15.6 °F 91% 30.28 in 10.0 mi NNE 6.9 mph - N/A   Clear
1:58 AM 17.1 °F 10.0 °F 14.7 °F 91% 30.27 in 10.0 mi NE 4.6 mph - N/A   Clear
2:58 AM 17.1 °F 11.7 °F 14.2 °F 88% 30.25 in 10.0 mi East 3.5 mph - N/A   Scattered Clouds
3:58 AM 15.6 °F 8.3 °F 14.2 °F 94% 30.24 in 10.0 mi NE 4.6 mph - N/A   Clear
4:58 AM 16.7 °F 11.2 °F 13.8 °F 88% 30.22 in 10.0 mi ENE 3.5 mph - N/A   Clear
5:58 AM 17.2 °F 8.9 °F 14.9 °F 91% 30.20 in 10.0 mi NNE 5.8 mph - N/A   Overcast
6:58 AM 18.5 °F 10.4 °F 16.3 °F 91% 30.21 in 10.0 mi NE 5.8 mph - N/A   Overcast
7:58 AM 20.7 °F 14.2 °F 17.1 °F 86% 30.22 in 10.0 mi ENE 4.6 mph - N/A   Mostly Cloudy
8:58 AM 22.8 °F 14.5 °F 18.5 °F 83% 30.21 in 10.0 mi NNE 6.9 mph - N/A   Mostly Cloudy
9:58 AM 26.6 °F 18.2 °F 19.8 °F 75% 30.19 in 10.0 mi North 8.1 mph - N/A   Partly Cloudy
10:58 AM 29.8 °F 26.3 °F 21.4 °F 71% 30.16 in 10.0 mi ENE 3.5 mph - N/A   Overcast
11:58 AM 32.2 °F 25.0 °F 22.6 °F 68% 30.12 in 10.0 mi North 8.1 mph - N/A   Overcast
12:58 PM 34.2 °F 29.0 °F 23.7 °F 66% 30.09 in 10.0 mi North 5.8 mph - N/A   Overcast
1:58 PM 37.0 °F 30.4 °F 25.2 °F 62% 30.04 in 10.0 mi North 9.2 mph - N/A   Overcast
2:58 PM 38.1 °F 32.9 °F 27.5 °F 66% 30.03 in 10.0 mi North 6.9 mph - N/A   Mostly Cloudy
3:58 PM 37.0 °F 30.4 °F 28.4 °F 71% 30.01 in 10.0 mi North 9.2 mph - N/A   Mostly Cloudy
4:58 PM 34.5 °F 28.6 °F 27.9 °F 77% 30.02 in 10.0 mi North 6.9 mph - N/A   Clear
5:58 PM 32.9 °F 27.5 °F 30.2 °F 90% 30.02 in 10.0 mi North 5.8 mph - N/A   Mostly Cloudy
6:58 PM 31.3 °F 24.7 °F 27.5 °F 86% 30.02 in 10.0 mi North 6.9 mph - N/A   Overcast
7:58 PM 29.7 °F 22.8 °F 24.4 °F 81% 30.02 in 10.0 mi North 6.9 mph - N/A   Partly Cloudy
8:58 PM 29.3 °F 21.5 °F 23.4 °F 78% 30.01 in 10.0 mi North 8.1 mph - N/A   Partly Cloudy
9:58 PM 29.1 °F 23.0 °F 23.4 °F 79% 30.01 in 10.0 mi North 5.8 mph - N/A   Clear
10:58 PM 28.6 °F 22.4 °F 23.9 °F 83% 30.00 in 10.0 mi Variable 5.8 mph - N/A   Clear
11:58 PM 28.4 °F 23.3 °F 23.4 °F 81% 29.97 in 10.0 mi NNW 4.6 mph - N/A   Clear